TimeEDT,TemperatureF,Dew PointF,Humidity,Sea Level PressureIn,VisibilityMPH,Wind Direction,Wind SpeedMPH,Gust SpeedMPH,PrecipitationIn,Events,Conditions,WindDirDegrees,DateUTC
12:58 AM,78.3,74.7,89,30.10,10.0,SSW,5.8,-,N/A,,Clear,200,2013-07-19 04:58:00
1:58 AM,77.4,75.2,93,30.10,10.0,SSW,4.6,-,N/A,,Clear,210,2013-07-19 05:58:00
2:58 AM,77.0,75.6,95,30.08,10.0,SSW,4.6,-,N/A,,Clear,210,2013-07-19 06:58:00
3:58 AM,77.0,75.4,95,30.06,10.0,SW,8.1,-,N/A,,Clear,220,2013-07-19 07:58:00
4:58 AM,76.5,75.2,96,30.06,10.0,SSW,5.8,-,N/A,,Clear,210,2013-07-19 08:58:00
5:58 AM,75.9,74.3,95,30.09,10.0,SW,5.8,-,N/A,,Clear,230,2013-07-19 09:58:00
6:58 AM,75.7,73.8,94,30.10,10.0,SSW,5.8,-,N/A,,Clear,210,2013-07-19 10:58:00
7:58 AM,77.4,73.9,89,30.11,10.0,SW,5.8,-,N/A,,Clear,220,2013-07-19 11:58:00
8:58 AM,80.8,72.3,75,30.12,10.0,SW,6.9,-,N/A,,Clear,220,2013-07-19 12:58:00
9:58 AM,82.9,72.5,71,30.12,10.0,SSW,8.1,-,N/A,,Partly Cloudy,210,2013-07-19 13:58:00
10:58 AM,85.1,73.2,67,30.12,10.0,WSW,10.4,-,N/A,,Clear,240,2013-07-19 14:58:00
11:58 AM,86.5,73.4,65,30.11,10.0,SW,11.5,-,N/A,,Clear,220,2013-07-19 15:58:00
12:58 PM,88.3,73.4,61,30.10,10.0,SSW,9.2,-,N/A,,Scattered Clouds,210,2013-07-19 16:58:00
1:58 PM,89.4,72.0,56,30.08,10.0,SW,10.4,-,N/A,,Partly Cloudy,220,2013-07-19 17:58:00
2:58 PM,89.8,72.9,57,30.05,10.0,SSW,6.9,17.3,N/A,,Partly Cloudy,210,2013-07-19 18:58:00
3:58 PM,90.7,72.5,55,30.03,10.0,SW,11.5,16.1,N/A,,Partly Cloudy,220,2013-07-19 19:58:00
4:58 PM,90.7,69.6,50,30.01,10.0,SSW,11.5,19.6,N/A,,Scattered Clouds,210,2013-07-19 20:58:00
5:58 PM,89.8,71.1,54,30.00,10.0,SSW,9.2,-,N/A,,Scattered Clouds,210,2013-07-19 21:58:00
6:58 PM,88.5,73.4,61,30.00,10.0,SSW,8.1,18.4,N/A,,Partly Cloudy,200,2013-07-19 22:58:00
7:58 PM,85.6,73.4,67,30.00,10.0,SSW,6.9,-,N/A,,Clear,200,2013-07-19 23:58:00
8:58 PM,82.6,73.4,74,30.01,10.0,South,5.8,-,N/A,,Clear,190,2013-07-20 00:58:00
9:58 PM,80.8,73.4,78,30.03,10.0,South,6.9,-,N/A,,Clear,190,2013-07-20 01:58:00
10:58 PM,79.3,73.0,81,30.05,10.0,South,9.2,-,N/A,,Clear,190,2013-07-20 02:58:00
11:58 PM,78.4,73.2,84,30.05,10.0,South,9.2,-,N/A,,Clear,190,2013-07-20 03:58:00